Content
SEND FEEDBACK

Daily
Averages
Monthly
Summary
United States of America

NEW YORK - CENTRAL PARK, NEW YORK


Home > North America > United States > New York
Elevation: 4 meters     Latitude: 40 47N     Longitude: 073 58W

WEATHER
 
SELECT A DAY
Number of Records: 151,169;   Date Range: 11/1/95 - 10/20/14
 
SHARE

PRINT THIS DATA

[ ← Previous Day ]
WEATHER ALMANAC - 16 JANUARY, 2013
[ Next Day → ]
[ °F ]   °C
Weather ElementAverageHighLow
Temperature1.1 °C2.8 °C (10:51 pm)0 °C (2:34 am)
Dewpoint-0.1 °C0.6 °C (4:51 pm)-1.1 °C (1:51 am)
Humidity92 %96 % (3:21 am)82 % (11:51 pm)
Barometer1015.2 hPa1022.4 hPa (2:34 am)1010.5 hPa (1:36 pm)
Wind Speed7.6 km/h22.2 km/h (1:51 am)
Wind Gust27.8 km/h (7:51 pm)
Weather ElementAverage
Visibility7.7 km
Wind DirectionENE (82.5 °)

Weather ElementTotal
Precipitation20.83 mm
Heating Degree Days16.9 (Base 18.3)
Averaged from 36 records on 16 January, 2013
WEATHER CONDITIONS BREAKOUT
WIND DIRECTION BREAKOUT
WEATHER BY HOUR - 16 JANUARY, 2013
[ °F ]   °C
Local TimeTemperatureDewpointHumidityBarometerVisibilityWind DirectionWind SpeedGust SpeedPrecipitationEventsConditions
1:51 AM0.6 °C-1.1 °C89 %1022 hPa9.7 kmENE (60°)22.2 km/h1.52 mmRainLight Rain
2:34 AM0 °C-1.1 °C92 %1022.4 hPa8 kmNE (50°)11.1 km/h1.02 mmOvercast
2:51 AM0 °C-1.1 °C92 %1021.7 hPa8 kmNE (50°)9.3 km/h1.52 mmOvercast
3:21 AM0 °C-0.6 °C96 %1021.3 hPa6.4 kmVariable11.1 km/h1.27 mmRainRain
3:51 AM0 °C-0.6 °C96 %1020 hPa4.8 kmNE (50°)9.3 km/h25.9 km/h2.54 mmOvercast
4:51 AM0 °C-0.6 °C96 %1020 hPa6.4 kmNE (50°)7.4 km/h4.06 mmOvercast
5:51 AM0 °C-0.6 °C96 %1018.6 hPa8 kmVariable9.3 km/h2.79 mmOvercast
6:51 AM0.6 °C-0.6 °C92 %1017.9 hPa6.4 kmVariable7.4 km/h1.78 mmRainLight Rain
7:51 AM0.6 °C0 °C96 %1017.3 hPa4.8 kmNE (50°)11.1 km/h0.76 mmOvercast
8:08 AM1.1 °C0 °C92 %1017.9 hPa3.2 kmNE (50°)5.6 km/h0.51 mmRainLight Rain
8:34 AM1.1 °C0 °C92 %1017.6 hPa8 kmNNE (20°)5.6 km/h0.76 mmOvercast
8:51 AM1.1 °C0 °C92 %1016.3 hPa8 kmENE (60°)7.4 km/h0.76 mmOvercast
9:51 AM1.1 °C0 °C92 %1014.9 hPa4.8 kmNorth (10°)7.4 km/h0 mmOvercast
10:43 AM1.1 °C0 °C92 %1015.9 hPa4 kmCalm0.25 mmOvercast
10:51 AM1.1 °C0 °C92 %1015.2 hPa4 kmCalm0.25 mmOvercast
11:27 AM0.6 °C-0.6 °C92 %1014.9 hPa4 kmNW (310°)9.3 km/h0.25 mmOvercast
11:39 AM0 °C-0.6 °C96 %1014.9 hPa4.8 kmVariable7.4 km/h0.25 mmOvercast
11:51 AM0 °C-0.6 °C96 %1013.9 hPa4.8 kmVariable5.6 km/h0.51 mmOvercast
12:51 PM0.6 °C0 °C96 %1012.5 hPa4.8 kmCalm0 mmOvercast
1:36 PM1.1 °C0 °C92 %1010.5 hPa4 kmVariable5.6 km/h0 mmOvercast
1:51 PM1.1 °C0 °C92 %1010.8 hPa4.8 kmCalm0 mmOvercast
2:44 PM0.6 °C0 °C96 %1013.2 hPa3.2 kmWNW (300°)5.6 km/hOvercast
2:51 PM0.6 °C0 °C96 %1011.9 hPa3.2 kmCalmOvercast
3:14 PM1.1 °C0 °C92 %1012.9 hPa4.8 kmVariable7.4 km/hOvercast
3:51 PM1.1 °C0 °C92 %1012.5 hPa9.7 kmWNW (300°)5.6 km/hOvercast
4:51 PM1.7 °C0.6 °C92 %1012.9 hPa9.7 kmWNW (290°)7.4 km/hOvercast
5:51 PM1.7 °C0.6 °C92 %1012.9 hPa6.4 kmVariable7.4 km/hOvercast
6:21 PM2.2 °C0.6 °C89 %1013.2 hPa11.3 kmVariable7.4 km/hOvercast
6:51 PM2.2 °C0.6 °C89 %1012.2 hPa14.5 kmVariable5.6 km/hOvercast
7:36 PM2.2 °C0.6 °C89 %1013.5 hPa12.9 kmWSW (250°)14.8 km/h25.9 km/hOvercast
7:51 PM2.2 °C0.6 °C89 %1012.9 hPa12.9 kmWest (280°)13 km/h27.8 km/hOvercast
8:51 PM2.2 °C0.6 °C89 %1013.5 hPa12.9 kmWSW (250°)13 km/hOvercast
9:24 PM2.2 °C0.6 °C89 %1013.5 hPa12.9 kmWest (280°)7.4 km/hScattered Clouds
9:51 PM2.2 °C0.6 °C89 %1012.9 hPa12.9 kmVariable7.4 km/hClear
10:51 PM2.8 °C0.6 °C86 %1012.9 hPa14.5 kmWest (260°)11.1 km/hClear
11:51 PM2.8 °C0 °C82 %1012.9 hPa14.5 kmVariable9.3 km/hClear
Hourly data recorded from KNYC, located 0 kilometers away from New York - Central Park, New York







STORIES FROM OUR PARTNERS